Location: Croisilles
(50.1998°N, 2.8793°E)
Time: 03:14:48
(UTC+00:00)

Aureole 3 - Pass Details

Date: 21 January 2021
Orbit: 381 x 1231 km, 82.5° (Epoch: 24 February)

Event Time Altitude Azimuth Distance (km) Brightness Sun altitude
Rises 18:25:29 0° 347° (NNW) 2,700 6.9 -19.0°
Reaches altitude 10° 18:27:49 10° 344° (NNW) 1,691 5.9 -19.4°
Maximum altitude 18:31:22 62° 264° (W) 495 3.3 -20.0°
Drops below altitude 10° 18:34:24 10° 183° (S) 1,449 5.6 -20.5°
Sets 18:36:17 0° 179° (S) 2,266 6.5 -20.8°
